THORAD DELTA 1 DEB, 8554

Orbit data source: Space-Track

THORAD DELTA 1 DEB, 8554 is space debris in SSO originally from a launch on Fri, 15 Nov 1974 UTC launched from the Air Force Western Test Range (AFWTR). Debris objects in space refer to the collection of defunct objects orbiting the Earth. Examples of debris include non-operational satellites, rocket bodies, and fragments generated from explosions, collisions, or faulty payload assembly.

Loading next visibility...
Identifier
8554, 1974-089CR
Orbit
SSO
Country
Flag of USUS
Related business
Manufacturer
Unknown
Mission
Spacecraft
Bus & Motor
Unknown
Mass
Unknown
Launch date (UTC)
1974-11-15 (51 years ago)
Launch vehicle
Unknown
Launch site
Air Force Western Test Range (AFWTR)
Object type
Payload
Rocket body
Debris
Shape & HBR
Unknown shape, 0.1 m
Radar Cross Section
Medium (>0.1 m² and <1 m²)

Expand to show TLE details & history
Last TLE update: 8 hours ago

TLE from 8 hours ago
0 THORAD DELTA 1 DEB
1 08554U 74089CR  26072.90857913  .00000012  00000-0  35132-3 0  9999
2 08554 101.9366  63.0949 0035341 138.1376 292.9248 12.56295930351867
Epoch: 2026-03-13T21:48Z
TLE epoch observation values (Epoch: 2026-03-13T21:48:21.236Z)
Latitude
67.49852°
Longitude
-106.04926°
Altitude
1,439.097 km
Speed
7.153 km/s
True Right ascension
02h 10m 18s
True Declination
67° 23' 14"
Sunlit
Object was in daylight at epoch
Visualization orbit readout
Latitude
Unknown
Longitude
Unknown
Altitude
Unknown
Speed
Unknown
Apparent Right ascension
Unknown
Apparent Declination
Unknown
Sunlit
N/A
Visualization observer readout
Local Sidereal Time
10:23:10
Azimuth
Unknown
Elevation
Unknown
Doppler factor
Unknown
Orbital elements
Apogee altitude
1,463.436 km
Perigee altitude
1,408.205 km
Semi-major axis
7,813.957 km
Eccentricity
0.00353
Inclination
101.9366°
RAAN
63.0949°
Arg. of periapsis
138.1376°
True anomaly
292.55117°
Mean anomaly
292.9248°
Eccentric anomaly
292.73805°
Mean motion
3.14222 °/min
Orbital period
114.57 mins
BSTAR
0.00035132
Loading maneuver chart data...
Computing Atmospheric mass density...

Documentation

Showing up to 5 results
|